When you browse on this site, cookies collect data to enhance your experience and personalize the content and advertising you see.
Visit our Privacy Policy to learn more. By continuing to use the site, you agree to this use of cookies and data.
  • In United Kingdom
  • List of Countries
  • For 7 days
  • Water Temperature
  • Satellite Maps
  • Weather Map
  • Weather Widgets
  • user-avatar
    Login

    Hourly Weather Roma

    Today, 22 April, Monday

    Time Temperature Precipitation Wind Pressure Humidity
    00:00 +10°C° 0 mm 2 mps 626 mmHg 81%
    01:00 +10°C° 0 mm 2 mps 626 mmHg 80%
    02:00 +10°C° 0 mm 2 mps 626 mmHg 73%
    03:00 +10°C° 0 mm 2 mps 626 mmHg 72%
    04:00 +11°C° 0 mm 1 mps 626 mmHg 72%
    05:00 +11°C° 0 mm 1 mps 626 mmHg 71%
    06:00 +12°C° 0 mm 1 mps 627 mmHg 68%
    07:00 +13°C° 0 mm 1 mps 627 mmHg 64%
    08:00 +14°C° 0 mm 1 mps 627 mmHg 60%
    09:00 +16°C° 0.1 mm 2 mps 628 mmHg 54%
    10:00 +18°C° 0.1 mm 2 mps 629 mmHg 48%
    11:00 +19°C° 0.1 mm 3 mps 629 mmHg 42%
    12:00 +18°C° 0.5 mm 3 mps 629 mmHg 50%
    13:00 +17°C° 0.5 mm 4 mps 628 mmHg 58%
    14:00 +15°C° 0.5 mm 4 mps 627 mmHg 65%
    15:00 +16°C° 0.5 mm 3 mps 627 mmHg 69%
    16:00 +15°C° 0.5 mm 2 mps 627 mmHg 72%
    17:00 +15°C° 0.5 mm 1 mps 627 mmHg 75%
    18:00 +14°C° 0.5 mm 1 mps 626 mmHg 78%
    19:00 +14°C° 0.5 mm 2 mps 626 mmHg 80%
    20:00 +13°C° 0.5 mm 2 mps 626 mmHg 83%
    21:00 +12°C° 0 mm 3 mps 626 mmHg 82%
    22:00 +12°C° 0 mm 3 mps 626 mmHg 82%
    23:00 +12°C° 0 mm 3 mps 626 mmHg 82%

    Tomorrow, 23 April, Tuesday

    Time Temperature Precipitation Wind Pressure Humidity
    00:00 +13°C° 1.3 mm 2 mps 626 mmHg 83%
    01:00 +13°C° 1.3 mm 2 mps 626 mmHg 85%
    02:00 +12°C° 1.3 mm 1 mps 626 mmHg 87%
    03:00 +12°C° 4.6 mm 2 mps 626 mmHg 89%
    04:00 +10°C° 4.6 mm 2 mps 626 mmHg 90%
    05:00 +10°C° 4.6 mm 2 mps 625 mmHg 92%
    06:00 +10°C° 4.4 mm 2 mps 625 mmHg 92%
    07:00 +10°C° 4.4 mm 2 mps 626 mmHg 91%
    08:00 +10°C° 4.4 mm 2 mps 626 mmHg 91%
    09:00 +10°C° 1.4 mm 2 mps 626 mmHg 90%
    10:00 +11°C° 1.4 mm 1 mps 626 mmHg 89%
    11:00 +11°C° 1.4 mm 1 mps 626 mmHg 88%
    12:00 +13°C° 0.4 mm 2 mps 626 mmHg 84%
    13:00 +13°C° 0.4 mm 3 mps 626 mmHg 80%
    14:00 +16°C° 0.4 mm 3 mps 627 mmHg 76%
    15:00 +14°C° 1.7 mm 3 mps 626 mmHg 79%
    16:00 +15°C° 1.7 mm 2 mps 626 mmHg 83%
    17:00 +14°C° 1.7 mm 2 mps 626 mmHg 86%
    18:00 +14°C° 2.2 mm 2 mps 626 mmHg 87%
    19:00 +14°C° 2.2 mm 1 mps 626 mmHg 88%
    20:00 +14°C° 2.2 mm 1 mps 626 mmHg 89%
    21:00 +13°C° 2 mm 1 mps 627 mmHg 90%
    22:00 +13°C° 2 mm 1 mps 627 mmHg 90%
    23:00 +13°C° 2 mm 1 mps 627 mmHg 91%

    Day after tomorrow, 24 April, Wednesday

    Time Temperature Precipitation Wind Pressure Humidity
    00:00 +13°C° 2.1 mm 1 mps 626 mmHg 92%
    01:00 +12°C° 2.1 mm 1 mps 626 mmHg 93%
    02:00 +12°C° 2.1 mm 1 mps 626 mmHg 94%
    03:00 +12°C° 1.2 mm 1 mps 626 mmHg 93%
    04:00 +12°C° 1.2 mm 2 mps 626 mmHg 92%
    05:00 +12°C° 1.2 mm 2 mps 625 mmHg 90%
    06:00 +13°C° 0.9 mm 2 mps 626 mmHg 90%
    07:00 +13°C° 0.9 mm 2 mps 626 mmHg 89%
    08:00 +13°C° 0.9 mm 2 mps 626 mmHg 88%
    09:00 +14°C° 0.5 mm 3 mps 627 mmHg 80%
    10:00 +16°C° 0.5 mm 3 mps 627 mmHg 73%
    11:00 +18°C° 0.5 mm 4 mps 628 mmHg 65%
    12:00 +18°C° 0.2 mm 4 mps 627 mmHg 62%
    13:00 +19°C° 0.2 mm 5 mps 627 mmHg 59%
    14:00 +19°C° 0.2 mm 5 mps 626 mmHg 55%
    15:00 +19°C° 0.2 mm 4 mps 626 mmHg 59%
    16:00 +18°C° 0.2 mm 3 mps 626 mmHg 63%
    17:00 +17°C° 0.2 mm 2 mps 626 mmHg 66%
    18:00 +16°C° 0.1 mm 2 mps 626 mmHg 69%
    19:00 +15°C° 0.1 mm 2 mps 626 mmHg 72%
    20:00 +14°C° 0.1 mm 2 mps 626 mmHg 75%
    21:00 +14°C° 0.2 mm 2 mps 626 mmHg 77%
    22:00 +13°C° 0.2 mm 2 mps 626 mmHg 79%
    23:00 +13°C° 0.2 mm 2 mps 626 mmHg 81%

    25 April, Thursday

    Time Temperature Precipitation Wind Pressure Humidity
    00:00 +13°C° 0.1 mm 2 mps 625 mmHg 81%
    01:00 +13°C° 0.1 mm 2 mps 625 mmHg 81%
    02:00 +12°C° 0.1 mm 2 mps 625 mmHg 81%
    03:00 +12°C° 0.1 mm 2 mps 624 mmHg 83%
    04:00 +12°C° 0.1 mm 2 mps 624 mmHg 84%
    05:00 +11°C° 0.1 mm 1 mps 624 mmHg 86%
    06:00 +12°C° 0.1 mm 2 mps 625 mmHg 83%
    07:00 +13°C° 0.1 mm 2 mps 625 mmHg 79%
    08:00 +15°C° 0.1 mm 2 mps 626 mmHg 76%
    09:00 +16°C° 0.1 mm 3 mps 626 mmHg 72%
    10:00 +17°C° 0.1 mm 4 mps 626 mmHg 67%
    11:00 +19°C° 0.1 mm 5 mps 627 mmHg 62%
    12:00 +19°C° 0 mm 5 mps 626 mmHg 56%
    13:00 +20°C° 0 mm 5 mps 626 mmHg 51%
    14:00 +20°C° 0 mm 5 mps 625 mmHg 45%
    15:00 +19°C° 0 mm 5 mps 625 mmHg 46%
    16:00 +19°C° 0 mm 4 mps 625 mmHg 47%
    17:00 +18°C° 0 mm 3 mps 625 mmHg 48%
    18:00 +16°C° 0 mm 2 mps 624 mmHg 52%
    19:00 +14°C° 0 mm 1 mps 624 mmHg 56%
    20:00 +12°C° 0 mm 0 mps 624 mmHg 59%
    21:00 +11°C° 0 mm 0 mps 624 mmHg 60%
    22:00 +11°C° 0 mm 0 mps 624 mmHg 61%
    23:00 +11°C° 0 mm 0 mps 624 mmHg 62%

    26 April, Friday

    Time Temperature Precipitation Wind Pressure Humidity
    00:00 +10°C° 0 mm 0 mps 623 mmHg 63%
    01:00 +10°C° 0 mm 0 mps 623 mmHg 63%
    02:00 +10°C° 0 mm 0 mps 623 mmHg 64%
    03:00 +9°C° 0 mm 0 mps 623 mmHg 66%
    04:00 +9°C° 0 mm 0 mps 623 mmHg 67%
    05:00 +9°C° 0 mm 0 mps 623 mmHg 68%
    06:00 +10°C° 0 mm 0 mps 624 mmHg 64%
    07:00 +13°C° 0 mm 1 mps 625 mmHg 59%
    08:00 +15°C° 0 mm 1 mps 625 mmHg 54%
    09:00 +16°C° 0 mm 1 mps 626 mmHg 50%
    10:00 +18°C° 0 mm 1 mps 626 mmHg 46%
    11:00 +20°C° 0 mm 1 mps 626 mmHg 41%
    12:00 +20°C° 0 mm 2 mps 626 mmHg 40%
    13:00 +20°C° 0 mm 2 mps 626 mmHg 38%
    14:00 +21°C° 0 mm 3 mps 626 mmHg 36%
    15:00 +20°C° 0 mm 2 mps 625 mmHg 40%
    16:00 +20°C° 0 mm 2 mps 625 mmHg 44%
    17:00 +19°C° 0 mm 2 mps 625 mmHg 48%
    18:00 +18°C° 0 mm 1 mps 625 mmHg 52%
    19:00 +15°C° 0 mm 1 mps 624 mmHg 55%
    20:00 +12°C° 0 mm 0 mps 624 mmHg 59%
    21:00 +12°C° 0 mm 0 mps 624 mmHg 60%
    22:00 +12°C° 0 mm 0 mps 624 mmHg 61%
    23:00 +11°C° 0 mm 0 mps 624 mmHg 62%

    27 April, Saturday

    Time Temperature Precipitation Wind Pressure Humidity
    00:00 +11°C° 0 mm 0 mps 624 mmHg 64%
    01:00 +11°C° 0 mm 0 mps 624 mmHg 65%
    02:00 +10°C° 0 mm 0 mps 624 mmHg 66%
    03:00 +11°C° 0 mm 1 mps 624 mmHg 68%
    04:00 +11°C° 0 mm 1 mps 624 mmHg 69%
    05:00 +11°C° 0 mm 1 mps 624 mmHg 71%
    06:00 +12°C° 0 mm 1 mps 625 mmHg 66%
    07:00 +14°C° 0 mm 1 mps 626 mmHg 60%
    08:00 +16°C° 0 mm 1 mps 627 mmHg 55%
    09:00 +18°C° 0 mm 1 mps 627 mmHg 48%
    10:00 +20°C° 0 mm 1 mps 628 mmHg 42%
    11:00 +22°C° 0 mm 1 mps 628 mmHg 35%
    12:00 +22°C° 0 mm 1 mps 628 mmHg 33%
    13:00 +23°C° 0 mm 2 mps 628 mmHg 31%
    14:00 +24°C° 0 mm 2 mps 628 mmHg 30%
    15:00 +23°C° 0 mm 2 mps 628 mmHg 34%
    16:00 +21°C° 0 mm 2 mps 627 mmHg 38%
    17:00 +20°C° 0 mm 2 mps 627 mmHg 43%
    18:00 +19°C° 0 mm 1 mps 627 mmHg 47%
    19:00 +16°C° 0 mm 1 mps 627 mmHg 50%
    20:00 +13°C° 0 mm 0 mps 626 mmHg 54%
    21:00 +13°C° 0 mm 0 mps 626 mmHg 54%
    22:00 +12°C° 0 mm 0 mps 626 mmHg 54%
    23:00 +13°C° 0 mm 1 mps 626 mmHg 54%
    Show more